Printer-friendly version

IAU Minor Planet Center

Minor Planet Center

MPEC 2004-V75 : COMET P/2004 TU12 (SIDING SPRING)

The following Minor Planet Electronic Circular may be linked-to from your own Web pages, but must not otherwise be redistributed electronically.


Read MPEC 2004-V74 Read MPEC 2004-V76


M.P.E.C. 2004-V75                                Issued 2004 Nov. 15, 22:13 UT

     The Minor Planet Electronic Circulars contain information on unusual
         minor planets and routine data on comets.  They are published
   on behalf of Commission 20 of the International Astronomical Union by the
          Minor Planet Center, Smithsonian Astrophysical Observatory,
                          Cambridge, MA 02138, U.S.A.

                  Supported in part by the Brinson Foundation
             Prepared using the Tamkin Foundation Computer Network

                              MPC@CFA.HARVARD.EDU
          URL http://cfa-www.harvard.edu/iau/mpc.html  ISSN 1523-6714

                       COMET P/2004 TU12 (SIDING SPRING)

Observations:
    PK04T12U  C2004 11 10.98198 22 50 36.74 -11 26 43.9          14.5 N EV075I77
    PK04T12U  C2004 11 10.98359 22 50 36.79 -11 26 36.4          14.4 N EV075I77
    PK04T12U  C2004 11 10.98519 22 50 36.91 -11 26 28.1          14.2 N EV075I77
    PK04T12U  C2004 11 10.98680 22 50 36.96 -11 26 20.1          14.5 N EV075I77
    PK04T12U  C2004 11 12.44795 22 51 55.92 -09 28 04.5          15.3 N EV075379
    PK04T12U  C2004 11 12.45024 22 51 56.09 -09 27 54.1                 EV075379
    PK04T12U  C2004 11 12.45253 22 51 56.19 -09 27 42.8                 EV075379
    PK04T12U  C2004 11 12.45483 22 51 56.27 -09 27 31.5                 EV075379
    PK04T12U  C2004 11 12.45597 22 51 56.35 -09 27 25.4                 EV075379
    PK04T12U  C2004 11 12.76709 22 52 14.38 -09 02 23.2          14.3 T EV075J87
    PK04T12U  C2004 11 12.76947 22 52 14.49 -09 02 12.1          14.3 T EV075J87
    PK04T12U  C2004 11 12.77228 22 52 14.64 -09 01 58.5          14.3 T EV075J87
    PK04T12U  C2004 11 12.82505 22 52 17.11 -08 57 45.0          14.5 T EV075213
    PK04T12U  C2004 11 12.83671 22 52 17.77 -08 56 48.1          14.3 T EV075213
    PK04T12U  C2004 11 12.83755 22 52 17.82 -08 56 44.2          14.3 T EV075213
    PK04T12U  C2004 11 12.87084 22 52 19.54 -08 54 03.4          14.5 T EV075941
    PK04T12U  C2004 11 12.87496 22 52 19.75 -08 53 43.3          14.1 T EV075941
    PK04T12U  C2004 11 12.88112 22 52 20.08 -08 53 13.8          14.7 T EV075941
    PK04T12U  C2004 11 12.88546 22 52 20.29 -08 52 52.8          14.8 T EV075941
    PK04T12U  C2004 11 13.01832 22 52 28.83 -08 41 56.4          15.0 T EV075927
    PK04T12U  C2004 11 13.03868 22 52 29.63 -08 40 16.7          14.8 T EV075927
    PK04T12U  C2004 11 13.05766 22 52 30.83 -08 38 49.3          14.5 T EV075927
    PK04T12U  C2004 11 13.49926 22 52 55.77 -08 03 41.6          14.6 N EV075D70
    PK04T12U  C2004 11 13.51047 22 52 56.35 -08 02 47.7          14.7 N EV075D70
    PK04T12U  C2004 11 13.52834 22 52 57.28 -08 01 22.7          14.6 N EV075D70
    PK04T12U  C2004 11 13.53601 22 52 57.61 -08 00 46.3                 EV075349
    PK04T12U  C2004 11 13.53698 22 52 57.69 -08 00 41.7                 EV075349
    PK04T12U  C2004 11 13.55406 22 52 58.60 -07 59 19.5                 EV075349
    PK04T12U  C2004 11 13.55741 22 52 58.77 -07 59 03.5                 EV075349
    PK04T12U  C2004 11 13.55933 22 52 58.89 -07 58 54.3          14.4 T EV075349
    PK04T12U  C2004 11 13.75098 22 53 11.32 -07 43 38.9          14.7 N EV075941
    PK04T12U  C2004 11 13.75637 22 53 11.61 -07 43 13.1          14.8 N EV075941
    PK04T12U  C2004 11 13.76535 22 53 12.09 -07 42 30.4          14.6 N EV075941
    PK04T12U  C2004 11 13.76850 22 53 12.25 -07 42 15.3          14.7 N EV075941
    PK04T12U  C2004 11 13.79060 22 53 13.55 -07 40 29.9          14.8 T EV075938
    PK04T12U  C2004 11 13.79200 22 53 13.63 -07 40 23.1          14.6 T EV075938
    PK04T12U  C2004 11 13.79340 22 53 13.70 -07 40 16.5          14.7 T EV075938
    PK04T12U  C2004 11 13.79980 22 53 13.87 -07 39 45.9          14.5 T EV075213
    PK04T12U  C2004 11 13.80042 22 53 13.93 -07 39 42.2          14.2 N EV075939
    PK04T12U  C2004 11 13.80365 22 53 14.10 -07 39 26.7          14.2 N EV075939
    PK04T12U  C2004 11 13.80422 22 53 14.08 -07 39 24.7          14.5 T EV075213
    PK04T12U  C2004 11 13.80689 22 53 14.28 -07 39 11.2          14.2 N EV075939
    PK04T12U  C2004 11 13.81404 22 53 14.62 -07 38 37.8          14.5 T EV075213
    PK04T12U  C2004 11 13.81942 22 53 14.90 -07 38 12.2          14.5 T EV075213
    PK04T12U  C2004 11 13.84942 22 53 16.40 -07 35 52.0                 EV075A59
    PK04T12U  C2004 11 13.85150 22 53 16.59 -07 35 42.0                 EV075A59
    PK04T12U  C2004 11 13.85443 22 53 16.64 -07 35 27.1                 EV075A59
    PK04T12U  C2004 11 13.85868 22 53 16.77 -07 35 06.4                 EV075A59
    PK04T12U  C2004 11 13.88009 22 53 18.16 -07 33 21.6          15.0 N EV075A06
    PK04T12U  C2004 11 13.88241 22 53 18.33 -07 33 10.1          15.2 N EV075A06
    PK04T12U  C2004 11 13.88676 22 53 18.58 -07 32 49.8          15.0 N EV075A06
    PK04T12U  C2004 11 13.88831 22 53 18.65 -07 32 41.9          14.8 N EV075A06
    PK04T12U  C2004 11 13.96171 22 53 22.84 -07 26 54.3          14.9 T EV075J93
    PK04T12U  C2004 11 13.96421 22 53 23.00 -07 26 42.6          14.9 T EV075J93
    PK04T12U  C2004 11 13.96626 22 53 23.08 -07 26 33.1          15.1 T EV075J93
    PK04T12U  C2004 11 14.07601 22 53 30.15 -07 17 46.9          13.6 N EV075850
    PK04T12U  C2004 11 14.09062 22 53 30.90 -07 16 36.9          13.3 N EV075850
    PK04T12U  C2004 11 14.10522 22 53 31.72 -07 15 27.8          13.8 N EV075850
    PK04T12U  C2004 11 14.76353 22 54 12.34 -06 23 25.4                 EV075170
    PK04T12U  C2004 11 14.76862 22 54 12.64 -06 23 01.3                 EV075170
    PK04T12U  C2004 11 14.77287 22 54 12.88 -06 22 41.2                 EV075170
    PK04T12U  C2004 11 14.77892 22 54 13.21 -06 22 12.7                 EV075170
    PK04T12U  C2004 11 14.78336 22 54 13.44 -06 21 51.7                 EV075170
    PK04T12U  C2004 11 14.78590 22 54 13.58 -06 21 39.6                 EV075170
    PK04T12U  C2004 11 14.78846 22 54 13.73 -06 21 27.5                 EV075170
    PK04T12U  C2004 11 14.81919 22 54 15.59 -06 19 01.7          14.4 N EV075458
    PK04T12U  C2004 11 14.82264 22 54 15.78 -06 18 45.4          14.5 N EV075458
    PK04T12U  C2004 11 14.82549 22 54 15.93 -06 18 31.8          14.5 N EV075458
    PK04T12U  C2004 11 15.51824 22 54 58.66 -05 23 48.2          14.6 N EV075415
    PK04T12U  C2004 11 15.51878 22 54 58.68 -05 23 45.3          14.6 N EV075415
    PK04T12U  C2004 11 15.51932 22 54 58.72 -05 23 43.2          14.6 N EV075415
    PK04T12U  C2004 11 15.51985 22 54 58.75 -05 23 40.7          14.5 N EV075415

Observer details:
170 Observatorio de Begues.  Observer J. Manteca.  0.36-m f/10
    Schmidt-Cassegrain + CCD.
213 Observatorio Montcabre.  Observer R. Naves.  Measurer M. Campas.  0.30-m
    f/6.6 Schmidt-Cassegrain + CCD.
349 Ageo.  Observer K. Kadota.  0.25-m f/5.0 reflector + CCD.
379 Hamamatsu-Yuto.  Observer S. Wakuda.  0.25-m f/5.0 Schmidt-Cassegrain
    + CCD.
415 Kambah, near Canberra.  Observer D. Herald.  0.36-m
    f/3.9 Schmidt-Cassegrain + CCD.
458 Guadarrama Observatory.  Observer D. Rodriguez.  0.20-m f/10
    Schmidt-Cassegrain + CCD.
850 Cordell-Lorenz Observatory, Sewanee.  Observers D. T. Durig,
    E. B. Whitehurst.  0.35-m f/1.88 Schmidt + CCD.
927 Madison-YRS.  Observer M. D. Mills.  0.30-m f/5 Schmidt-Cassegrain + CCD.
938 Linhaceira.  Observer R. Goncalves.  0.25-m f/6.7 Schmidt-Cassegrain +
    CCD.
939 Observatorio Rodeno.  Observer J. Castellano.  0.20-m f/10
    Schmidt-Cassegrain + CCD.
941 Observatorio Pla D'Arguines.  Observers R. Ferrando, C. Segarra.  Measurer
    R. Ferrando.  0.36-m f/6.3 Schmidt-Cassegrain + CCD.
A06 Mataro.  Observers F. Garcia, E. Cortes.  Measurer E. Cortes.  0.25-m
    f/6.3 Schmidt-Cassegrain + CCD.
A59 Karlovy Vary Observatory.  Observer D. Hanzl.  0.25-m f/5.5 reflector
    + CCD.  Long. = 12.9071, rho cos phi' = 0.64123, rho sin phi' = +0.76490.
D70 Tosa.  Observer S. Shimomoto.  0.20-m f/6.3 Schmidt-Cassegrain + CCD.
I77 CEAMIG-REA Observatory, Belo Horizonte.  Observers C. Jacques, E. Pimentel.
    Measurer C. Jacques.  0.30-m f/3.0 Schmidt-Cassegrain + CCD.
J87 La Canada.  Observer J. Lacruz.  0.30-m f/10 Schmidt-Cassegrain + CCD.
J93 Mount Tuffley Observatory, Gloucester.  Observer J. Fletcher.  0.25-m
    f/5.5 Schmidt-Cassegrain + CCD.

Orbital elements:
    P/2004 TU12 (Siding Spring)
Epoch 1988 Nov. 15.0 TT = JDT 2447480.5
T 1988 Dec. 1.09413 TT                                  MPC
q   1.2270255            (2000.0)            P               Q
n   0.18524299     Peri.  356.48616     +0.88141652     -0.40541527
a   3.0477186      Node    31.25002     +0.44395641     +0.53587560
e   0.5973954      Incl.   27.85261     +0.16126881     +0.74059152
P   5.32

Epoch 1999 July 1.0 TT = JDT 2451360.5
T 1999 July 18.66734 TT                                 MPC
q   1.2227017            (2000.0)            P               Q
n   0.18551594     Peri.  356.37392     +0.88218928     -0.40358748
a   3.0447284      Node    31.25150     +0.44294928     +0.53637743
e   0.5984201      Incl.   27.88117     +0.15980619     +0.74122629
P   5.31

